Tracking 25953 objects as of 16-Aug-2022
HD Live streaming from Space Station
objects crossing your sky now

STARLINK-4133

Track STARLINK-4133 now!
10-day predictions
STARLINK-4133 is classified as:


NORAD ID: 53253
Int'l Code: 2022-086M
Perigee: 351.3 km
Apogee: 362.7 km
Inclination: 53.2 °
Period: 91.5 minutes
Semi major axis: 6728 km
RCS: Unknown
Launch date: July 24, 2022
Source: United States (US)
Launch site: AIR FORCE EASTERN TEST RANGE (AFETR)
aabbcc
Your satellite tracking list
Your tracking list is empty




NASA's NSSDC Master Catalog

Two Line Element Set (TLE):
1 53253U 22086M   22227.91667824  .00025931  00000-0  18860-3 0  9990
2 53253  53.2176 292.5766 0008533 294.3026 149.9502 15.73160984  4150
Source of the keplerian elements: AFSPC